Location: Newark
(52.2583°N, 7.1190°W)
Time: 15:22:58
(UTC+00:00)

S-56A Canister/Altair - Pass Details

Date: 21 November 2019
Orbit: 633 x 2499 km, 38.9° (Epoch: 10 December)

Event Time Altitude Azimuth Distance (km) Brightness Sun altitude
Rises 18:20:39 0° 244° (WSW) 5,117 13.3 -16.6°
Reaches altitude 10° 18:24:56 10° 235° (SW) 3,793 12.1 -17.3°
Maximum altitude 18:32:31 29° 181° (S) 2,052 9.8 -18.4°
Enters shadow 18:36:52 15° 131° (SE) 2,411 9.7 -19.1°
